Regional Weather Roundup
Issued by NWS

Home | Current Version | Previous Version | Text Only | Print | Product List | Glossary Off
Versions: 1 2 3 4 5 6 7 8 9 10 11 12 13 14 15 16 17 18 19 20 21 22 23 24 25 26 27 28 29 30 31 32 33 34 35 36 37 38 39 40 41 42 43 44 45 46 47 48 49 50

775
ASUS44 KJAN 191710
RWRMS

MISSISSIPPI HOURLY WEATHER ROUNDUP
NATIONAL WEATHER SERVICE JACKSON MS
1200 PM CDT SAT APR 19 2014

NOTE: "FAIR: INDICATES FEW OR NO CLOUDS BELOW 12,000 FEET WITH NO
SIGNIFICANT WEATHER AND/OR OBSTRUCTIONS TO VISIBILITY.

MSZ001>002-007>008-010>013-018>021-025>028-034>036-191800-
NORTHWEST MISSISSIPPI

CITY           SKY/WX    TMP DP  RH WIND       PRES   REMARKS
CLARKSDALE       N/A     73  50  43 N9        30.22F
CLEVELAND      FAIR      72  53  51 N8        30.21F
GREENWOOD      SUNNY     73  52  47 N8        30.20F
GREENVILLE     SUNNY     74  51  44 NE10      30.21S
GRENADA        FAIR      72  50  46 NE8       30.19S
OLIVE BRANCH   MOSUNNY   72  43  35 NE10      30.21F
OXFORD         FAIR      72  41  33 NE9       30.20F
TUNICA         SUNNY     72  48  43 N7        30.22S
$$

MSZ003>006-009-014>017-022>024-029>033-037>039-191800-
NORTHEAST MISSISSIPPI

CITY           SKY/WX    TMP DP  RH WIND       PRES   REMARKS
BELMONT        FAIR      72  44  36 NE10G17   30.17S
COLUMBUS AFB   SUNNY     75  46  35 NE9       30.16F
CORINTH        FAIR      73  39  29 NE13G21   30.19F
GOLDN TRIANGLE SUNNY     73  48  40 NE12G18   30.19F
STARKVILLE     FAIR      72  46  40 NE12      30.17S
TUPELO         SUNNY     73  44  35 NE9       30.17F
$$

MSZ040-058-191800-
CENTRAL MISSISSIPPI

CITY           SKY/WX    TMP DP  RH WIND       PRES   REMARKS
JACKSON INTL   SUNNY     72  49  44 N13       30.19S
JACKSON HAWKNS SUNNY     73  49  42 NE7       30.19F
MERIDIAN KEY   SUNNY     74  48  39 N13       30.15F
MERIDIAN NAS   SUNNY     73  47  39 N10G20    30.15F
RAYMOND        FAIR      72  66  83 N7        30.20S
VICKSBURG      SUNNY     73  53  49 NE8       30.21F
$$

MSZ059>079-191800-
SOUTH MISSISSIPPI

CITY           SKY/WX    TMP DP  RH WIND       PRES   REMARKS
BROOKHAVEN     FAIR      72  52  49 N9        30.20F
COLUMBIA       FAIR      73  52  46 MISG      30.16S
HATTIESBURG    SUNNY     73  51  46 NE13G22   30.15F
MCCOMB         SUNNY     73  47  39 N7        30.18F
NATCHEZ        SUNNY     72  52  49 N9        30.21F
PINE BELT      SUNNY     72  50  46 NE14      30.16F
$$

MSZ080>082-191800-
COASTAL MISSISSIPPI

CITY           SKY/WX    TMP DP  RH WIND       PRES   REMARKS
BILOXI         SUNNY     73  51  46 N12       30.12F
PASCAGOULA     SUNNY     72  52  49 N17       30.10F
GULFPORT       SUNNY     75  49  39 N9G20     30.12F
$$



USA.gov is the U.S. government's official web portal to all federal, state and local government web resources and services.